Retour au catalogue

STARLINK-4515

ActifCommunicationsVLEO
NORAD 53397·PAYLOAD·🇺🇸 United States

Lancé Aug 10, 2022 depuis Cape Canaveral Space Force Station

Loading…

Prochains Passages (prochaines 24 heures)

TLE

FraisSource: CelesTrak SupGP

Époque: Sep 15, 2026, 02:07 UTC

1 53397C 22097K   26258.08868056  .00004280  00000+0  12247-3 0  2581
2 53397  53.1602 347.3841 0001101  90.5147 102.9660 15.35391061    14

Suivez STARLINK-4515 en temps réel avec AllMySat

Download on the App Store